Location: Newark
(5.8900°S, 42.6378°W)
Time: 18:48:09
(UTC+00:00)

Vanguard 1 Rocket - Pass Details

Date: 22 October 2019
Orbit: 651 x 4225 km, 34.3° (Epoch: 11 November)

Event Time Altitude Azimuth Distance (km) Brightness Sun altitude
Rises 08:02:14 0° 228° (SW) 2,991 9.7 -6.9°
Reaches altitude 10° 08:04:16 10° 224° (SW) 2,160 9.0 -6.4°
Maximum altitude 08:08:58 63° 142° (SE) 965 7.8 -5.3°
Drops below altitude 10° 08:16:22 10° 62° (ENE) 3,356 11.2 -3.5°
Sets 08:20:18 0° 59° (ENE) 4,847 11.9 -2.5°
